Location: Stoke Bliss
(52.2667°N, 2.5167°W)
Time: 12:30:11
(UTC+00:00)

GP-B - Pass Details

Date: 03 March 2021
Orbit: 631 x 635 km, 89.8° (Epoch: 12 April)

Event Time Altitude Azimuth Distance (km) Brightness Sun altitude
Rises 19:23:06 0° 174° (S) 2,921 6.4 -14.5°
Reaches altitude 10° 19:25:19 10° 174° (S) 2,018 5.5 -14.8°
Maximum altitude 19:29:45 82° 86° (E) 649 3.0 -15.5°
Drops below altitude 10° 19:34:14 10° 0° (N) 2,035 5.8 -16.2°
Sets 19:36:28 0° 0° (N) 2,948 6.7 -16.5°
